Regional Weather Roundup
Issued by NWS

Home | Current Version | Previous Version | Text Only | Print | Product List | Glossary Off
Versions: 1 2 3 4 5 6 7 8 9 10 11 12 13 14 15 16 17 18 19 20 21 22 23 24 25 26 27 28 29 30 31 32 33 34 35 36 37 38 39 40 41 42 43 44 45 46 47 48 49 50

000
ASUS43 KFSD 281702
RWRSD

WEATHER ROUNDUP FOR SOUTH DAKOTA
NATIONAL WEATHER SERVICE SIOUX FALLS SD
1100 AM CST TUE FEB 28 2017

NOTE: "FAIR" INDICATES FEW OR NO CLOUDS BELOW 12,000 FEET WITH NO
SIGNIFICANT WEATHER AND/OR OBSTRUCTIONS TO VISIBILITY.


SDZ001>005-009-010-012>017-281800-
NORTHWEST AND NORTH CENTRAL SOUTH DAKOTA

CITY           SKY/WX    TMP DP  RH WIND       PRES   REMARKS
BUFFALO          N/A     22  18  85 SE6       29.69R WCI  14
FAITH            N/A     23  21  92 NE14      29.74F WCI  11
MOBRIDGE       CLOUDY    25  14  63 N10       29.80R WCI  15
$$

SDZ012>016-024>037-041>051-057-063-072>074-281800-
SOUTHWEST AND SOUTH CENTRAL SOUTH DAKOTA

CITY           SKY/WX    TMP DP  RH WIND       PRES   REMARKS
RAPID CTY ARPT CLOUDY    25  21  85 N16       29.72R WCI  12
PIERRE         MIX PCPN  24  20  84 NE13      29.77F WCI  12
CUSTER         SUNNY     24  16  71 W17       29.60R WCI  11
ELLSWORTH AFB  CLOUDY    24  24 100 N12       29.71  FOG     WCI  13
PHILIP         FOG       28  28 100 NE15      29.73S VSB 3/4 WCI  16
PINE RIDGE     CLOUDY    27  19  72 W17       29.71R WCI  14
SPEARFISH      FOG       19  19 100 CALM      29.70S VSB<1/4
WINNER         CLOUDY    34  30  85 NW3       29.75R
$$

SDZ004>011-016>023-039-040-281800-
NORTHEAST SOUTH DAKOTA

CITY           SKY/WX    TMP DP  RH WIND       PRES   REMARKS
ABERDEEN       CLOUDY    21  16  81 NE15      29.82S WCI   8
WATERTOWN      CLOUDY    27  23  85 N14       29.73S WCI  16
BROOKINGS      CLOUDY    34  29  82 NE12      29.70S WCI  25
SISSETON         N/A     25  21  85 N16       29.80F WCI  12
$$

SDZ017-020-022-023-036>040-048>070-281800-
SOUTHEAST SOUTH DAKOTA

CITY           SKY/WX    TMP DP  RH WIND       PRES   REMARKS
SIOUX FALLS    CLOUDY    37  32  82 NE12      29.69S
HURON          CLOUDY    27  23  85 N15       29.77R WCI  15
CHAMBERLAIN    CLOUDY    30  28  92 NW10      29.76S WCI  21
MITCHELL       PTSUNNY   36  31  82 N13       29.74F
YANKTON        MOSUNNY   36  30  80 N10       29.70R
$$

ABBREVIATIONS USED IN REMARKS
   TC - TEMPERATURE IN CELSIUS
  WCI - WIND CHILL INDEX
   HX - HEAT INDEX
  VSB - VISIBILITY





USA.gov is the U.S. government's official web portal to all federal, state and local government web resources and services.